Stations météo

Publicité
Chartres, France (7143): Température de l'air & dewpoint: 17.10.2017 17:00:00 - 23.10.2017 17:00:00 (CEST)Chartres, France (7143): Température de l'air 5cm: 17.10.2017 17:00:00 - 23.10.2017 17:00:00 (CEST)Chartres, France (7143): Température de l'air -20cm & Température de l'air -100cm: 17.10.2017 17:00:00 - 23.10.2017 17:00:00 (CEST)Chartres, France (7143): Vitesse du vent & gusts: 17.10.2017 17:00:00 - 23.10.2017 17:00:00 (CEST)Chartres, France (7143): Direction du vent: 17.10.2017 17:00:00 - 23.10.2017 17:00:00 (CEST)Chartres, France (7143): reduced air pressure: 17.10.2017 17:00:00 - 23.10.2017 17:00:00 (CEST)Chartres, France (7143): visibility: 17.10.2017 17:00:00 - 23.10.2017 17:00:00 (CEST)Chartres, France (7143): Ensoleillement: 17.10.2017 17:00:00 - 23.10.2017 17:00:00 (CEST)Chartres, France (7143): Quantités de précipitations: 17.10.2017 17:00:00 - 23.10.2017 17:00:00 (CEST)
Date & Time tt [°C] td [°C] tt 5cm [°C] tt -20cm [°C] tt -100cm [°C] ff [km/h] ff [knt] fx [km/h] fx [knt] dd ppp [hPa] vv [km] sd [min] rr [mm]
23.10.2017 17:00:00 13,3 11,7 12,9 14,2 15,8 10 6 25 14 SW 1023,0 12 0 0,2
23.10.2017 16:00:00 13,8 10,8 13,0 14,1 15,8 14 8 29 16 WSW 1023,3 18 0 0,0
23.10.2017 15:00:00 14,3 10,5 15,0 14,0 15,8 14 8 29 15 WSW 1023,4 19 0 0,0
23.10.2017 14:00:00 14,4 10,2 15,1 14,0 15,8 14 8 29 16 WSW 1023,5 20 3 0,0
23.10.2017 13:00:00 13,5 10,5 13,3 13,9 15,8 11 6 28 15 WSW 1023,9 20 0 0,0
23.10.2017 12:00:00 12,5 9,9 12,3 13,9 15,8 13 7 29 15 WSW 1023,9 20 0 0,0
23.10.2017 11:00:00 11,5 9,4 11,2 13,9 15,8 11 6 20 11 SW 1023,9 20 0 0,0
23.10.2017 10:00:00 10,7 8,5 10,1 13,9 15,8 9 5 21 11 WSW 1023,9 20 0 0,0
23.10.2017 09:00:00 10,2 8,1 9,8 13,9 15,8 8 4 19 11 WSW 1024,0 20 0 0,0
23.10.2017 08:00:00 10,1 7,9 9,7 14,0 15,8 8 4 22 12 WSW 1023,4 20 0 0,0
23.10.2017 07:00:00 10,1 7,9 9,5 14,0 15,8 10 6 21 11 WSW 1023,4 20 0 0,0
23.10.2017 06:00:00 9,9 8,0 9,2 14,0 15,8 9 5 24 13 WSW 1023,4 20 0 0,0
23.10.2017 05:00:00 10,1 7,7 9,6 14,1 15,8 13 7 32 17 W 1023,3 20 0 0,0
23.10.2017 04:00:00 9,8 7,9 9,4 14,1 15,8 8 5 33 18 WSW 1023,4 20 0 0,0
23.10.2017 03:00:00 10,1 7,7 9,4 14,2 15,9 12 6 28 15 W 1023,3 20 0 0,0
23.10.2017 02:00:00 9,8 7,6 9,1 14,2 15,8 9 5 26 14 WSW 1023,2 20 0 0,0
23.10.2017 01:00:00 10,1 7,7 - - - 9 5 28 15 W 1023,0 20 - 0,0
23.10.2017 00:00:00 10,5 8,1 9,5 14,2 15,9 11 6 28 15 W 1023,1 20 0 0,0
22.10.2017 23:00:00 10,0 7,6 9,0 14,3 15,9 11 6 27 14 W 1022,6 20 0 0,0
22.10.2017 22:00:00 9,9 7,8 8,6 14,3 15,9 13 7 29 16 WSW 1022,2 20 0 0,0
22.10.2017 21:00:00 9,9 7,8 - - - 11 6 21 11 WSW 1022,2 20 - 0,0
22.10.2017 20:00:00 10,1 7,7 8,8 14,3 15,9 10 5 23 12 WSW 1022,0 20 0 0,0
22.10.2017 19:00:00 10,6 7,3 9,1 14,3 15,9 10 5 36 19 W 1021,6 20 8 0,2
22.10.2017 18:00:00 11,8 6,5 11,7 14,3 15,9 16 8 42 23 W 1020,7 20 37 0,0
22.10.2017 17:00:00 12,9 5,6 12,2 14,3 15,9 17 9 37 20 W 1020,4 20 40 0,0
22.10.2017 16:00:00 11,6 6,1 10,1 14,3 15,9 15 8 43 23 W 1020,3 20 34 0,0
22.10.2017 15:00:00 12,1 5,5 10,8 14,2 15,9 13 7 46 25 W 1019,8 20 14 0,0
22.10.2017 14:00:00 11,6 5,5 9,3 14,2 15,9 19 10 41 22 W 1019,9 20 21 0,2
22.10.2017 13:00:00 11,5 6,0 12,8 14,2 15,9 16 8 41 22 W 1020,1 20 45 0,0
22.10.2017 12:00:00 11,4 6,3 14,1 14,2 15,9 18 10 40 21 W 1019,8 20 60 0,0
22.10.2017 11:00:00 10,4 6,2 11,7 14,3 15,9 18 10 45 24 W 1019,6 20 60 0,0
22.10.2017 10:00:00 9,4 5,9 8,5 14,4 15,9 16 9 38 21 WSW 1019,2 20 31 0,0
22.10.2017 09:00:00 8,5 5,6 7,9 14,4 15,9 16 9 36 20 WSW 1018,9 20 5 0,0
22.10.2017 08:00:00 8,8 5,7 8,1 14,5 15,9 17 9 41 22 WSW 1018,2 20 0 0,0
22.10.2017 07:00:00 8,9 5,6 8,2 14,5 15,9 19 10 43 23 WSW 1017,9 20 0 0,0
22.10.2017 06:00:00 9,2 5,7 8,8 14,6 15,9 18 10 44 24 WSW 1017,6 20 0 0,0
22.10.2017 05:00:00 9,1 5,6 8,4 14,7 15,9 20 11 41 22 WSW 1017,1 20 0 0,0
22.10.2017 04:00:00 9,0 5,7 8,2 14,8 15,9 19 10 38 20 SW 1017,2 20 0 0,0
22.10.2017 03:00:00 9,2 5,6 8,5 14,9 15,9 20 11 42 23 SW 1017,4 20 0 0,0
22.10.2017 02:00:00 9,6 5,9 8,7 15,0 15,9 21 11 41 22 WSW 1017,1 20 0 0,0
22.10.2017 01:00:00 9,7 5,9 8,7 15,0 15,9 16 9 40 22 WSW 1017,1 20 0 0,0
22.10.2017 00:00:00 10,1 6,2 9,2 15,1 15,9 16 9 36 19 SW 1016,7 20 0 0,0
21.10.2017 23:00:00 10,4 6,7 9,5 15,1 15,9 16 9 33 18 SW 1016,4 20 0 0,0
21.10.2017 22:00:00 10,8 6,5 9,9 15,2 15,9 16 9 38 20 SW 1016,1 20 0 0,0
21.10.2017 21:00:00 11,3 7,4 10,2 15,3 15,9 14 8 35 19 SW 1015,9 20 0 0,0
21.10.2017 20:00:00 11,1 7,8 9,7 15,3 16,0 15 8 32 18 SW 1015,6 20 0 0,0
21.10.2017 19:00:00 11,9 7,4 10,4 15,3 15,9 16 9 34 18 SW 1015,0 20 19 0,0
21.10.2017 18:00:00 12,3 7,0 9,6 15,3 15,9 17 9 45 24 SW 1014,8 20 19 0,2
21.10.2017 17:00:00 14,5 8,2 12,2 15,3 16,0 22 12 42 23 SW 1014,2 20 44 0,0
21.10.2017 16:00:00 13,3 9,0 10,3 15,2 16,0 13 7 72 39 WSW 1013,9 20 45 1,2
21.10.2017 15:00:00 17,2 5,8 19,5 15,2 16,0 26 14 52 28 WSW 1013,4 20 60 0,0
21.10.2017 14:00:00 16,6 8,3 16,8 15,1 16,0 21 11 46 25 WSW 1013,8 20 26 0,0
21.10.2017 13:00:00 15,5 9,2 15,2 15,1 16,0 21 11 48 26 SW 1014,2 20 8 0,0
21.10.2017 12:00:00 15,3 9,4 14,7 15,1 16,0 22 12 42 23 SW 1014,5 19 26 0,0
21.10.2017 11:00:00 14,6 11,4 13,8 15,1 16,0 16 9 30 16 SW 1014,3 20 7 0,0
21.10.2017 10:00:00 14,2 11,7 12,9 15,1 15,9 15 8 34 19 SW 1013,9 20 3 0,0
21.10.2017 09:00:00 13,7 11,6 12,9 15,1 16,0 16 9 36 20 SW 1013,2 20 0 0,2
21.10.2017 08:00:00 13,8 12,4 13,2 15,1 16,0 18 10 35 19 SW 1012,5 20 0 0,2
21.10.2017 07:00:00 14,1 12,5 13,5 15,1 16,0 14 8 47 25 SW 1012,1 15 0 0,2
21.10.2017 06:00:00 14,8 12,8 14,2 15,1 16,0 17 9 32 18 SSW 1011,4 15 0 0,0
21.10.2017 05:00:00 14,4 12,4 13,0 15,1 16,0 20 11 36 19 S 1011,0 20 0 0,0
21.10.2017 04:00:00 13,2 11,3 12,3 15,2 16,0 14 8 31 17 S 1011,4 20 0 0,0
21.10.2017 03:00:00 13,2 10,7 12,0 15,3 16,0 17 9 32 17 S 1011,9 20 0 0,0
21.10.2017 02:00:00 12,5 9,7 10,8 15,3 16,0 15 8 32 18 S 1012,4 20 0 0,0
21.10.2017 01:00:00 11,5 8,9 10,5 15,3 16,0 12 7 27 14 SSW 1013,6 20 0 0,0
21.10.2017 00:00:00 12,2 8,8 10,5 15,4 16,0 14 8 26 14 SSW 1013,5 20 0 0,0
20.10.2017 23:00:00 11,6 8,4 10,3 15,4 16,0 12 7 22 12 S 1014,0 20 0 0,0
20.10.2017 22:00:00 11,5 8,2 8,6 15,5 16,0 9 5 19 10 S 1014,2 20 0 0,0
20.10.2017 21:00:00 10,8 7,8 8,5 15,5 16,0 6 3 14 7 S 1014,4 20 0 0,0
20.10.2017 20:00:00 12,6 8,3 10,4 15,5 16,0 9 5 15 8 S 1014,7 20 0 0,0
20.10.2017 19:00:00 13,4 8,2 11,5 15,5 16,0 8 5 27 15 S 1014,5 20 11 0,0
20.10.2017 18:00:00 15,4 8,4 14,7 15,5 16,0 15 8 30 16 SW 1014,6 20 53 0,0
20.10.2017 17:00:00 16,4 8,4 16,4 15,4 16,0 14 7 33 18 SW 1014,6 20 47 0,0
20.10.2017 16:00:00 0,0 -3,9 -0,9 0,0 0,1 16 9 39 21 SW 1028,0 19 - 0,0
20.10.2017 15:00:00 0,0 -3,9 -0,9 0,0 0,0 16 9 34 18 SW 1028,4 20 - 0,0
20.10.2017 14:00:00 0,0 -3,9 -0,9 0,0 0,0 18 10 42 23 WSW 1028,4 20 - -
20.10.2017 13:00:00 0,0 -3,9 -0,9 0,0 0,1 16 9 39 21 WSW 1028,6 20 - 0,0
20.10.2017 12:00:00 0,0 -3,9 -0,9 0,0 0,1 18 10 37 20 WSW 1027,9 20 - 0,0
20.10.2017 11:00:00 13,1 9,2 15,2 15,4 16,0 15 8 35 19 WSW 1014,1 20 60 0,0
20.10.2017 10:00:00 11,7 9,1 10,1 15,4 16,0 15 8 27 15 SW 1013,7 20 31 0,0
20.10.2017 09:00:00 10,3 8,6 9,4 15,5 16,0 12 6 24 13 SW 1012,9 20 0 0,0
20.10.2017 08:00:00 10,4 8,8 9,4 15,6 16,0 11 6 22 12 SW 1011,8 20 0 0,0
20.10.2017 07:00:00 10,9 9,0 9,4 15,6 16,0 13 7 31 17 SW 1010,9 20 0 0,0
20.10.2017 06:00:00 11,4 9,1 10,2 15,6 16,0 15 8 34 18 SW 1010,2 20 0 0,0
20.10.2017 05:00:00 12,3 10,4 11,4 15,7 16,0 12 6 26 14 WSW 1009,5 20 0 0,0
20.10.2017 04:00:00 12,3 10,4 11,7 15,7 16,0 13 7 29 16 SW 1008,6 20 0 0,0
20.10.2017 03:00:00 13,3 11,7 12,6 15,8 16,0 21 11 44 24 SW 1007,9 15 0 2,2
20.10.2017 02:00:00 13,3 12,0 12,6 15,9 16,0 19 11 49 26 S 1007,3 4,9 0 5,1
20.10.2017 01:00:00 13,9 12,6 13,3 15,9 16,0 16 8 37 20 S 1007,6 4,6 0 2,6
20.10.2017 00:00:00 14,7 11,8 13,7 15,9 16,0 17 9 39 21 S 1007,7 20 0 0,0
19.10.2017 23:00:00 14,9 11,7 - - - 18 10 39 21 S 1007,4 20 - -
19.10.2017 22:00:00 15,3 11,7 14,4 16,0 16,0 16 9 37 20 S 1007,3 18 0 0,0
19.10.2017 21:00:00 15,7 11,9 14,7 16,0 16,0 16 9 31 17 S 1007,4 20 0 0,0
19.10.2017 20:00:00 16,1 11,9 14,9 16,0 16,0 13 7 26 14 S 1007,4 20 0 0,0
19.10.2017 19:00:00 16,8 11,9 15,5 15,9 16,0 11 6 29 16 S 1007,4 20 0 0,0
19.10.2017 18:00:00 18,0 12,2 17,7 15,9 16,0 14 8 32 17 S 1007,4 20 0 0,0
19.10.2017 17:00:00 18,5 11,6 18,5 15,8 16,0 18 10 37 20 SSW 1007,5 19 7 0,0
19.10.2017 16:00:00 19,3 12,1 19,7 15,7 16,0 16 9 35 19 SSW 1007,2 7 9 0,0
19.10.2017 15:00:00 19,7 12,7 20,7 15,5 16,0 18 10 37 20 SSW 1007,4 1,6 16 0,0
19.10.2017 14:00:00 20,1 13,8 19,9 15,5 16,0 19 10 39 21 SSW 1007,8 20 40 0,0
19.10.2017 13:00:00 18,6 14,3 19,0 15,4 16,0 16 8 36 19 SSW 1008,1 19 31 0,0
19.10.2017 12:00:00 17,5 14,0 17,4 15,4 16,0 17 9 31 17 S 1008,5 20 47 0,0
19.10.2017 11:00:00 15,8 13,3 14,2 15,4 16,0 13 7 26 14 S 1008,8 20 11 0,0
19.10.2017 10:00:00 14,3 12,7 12,7 15,4 16,0 10 5 22 12 S 1008,9 20 0 0,0
19.10.2017 09:00:00 13,5 11,7 11,6 15,5 16,0 6 3 16 9 S 1008,6 20 0 0,0
19.10.2017 08:00:00 12,3 10,9 10,8 15,5 16,0 2 1 8 4 SE 1008,2 17 0 0,0
19.10.2017 07:00:00 12,1 10,7 10,7 15,5 16,0 0 0 8 4 N 1008,2 17 0 0,0
19.10.2017 06:00:00 11,9 10,5 10,1 15,6 16,0 6 3 11 6 SSE 1008,5 17 0 0,0
19.10.2017 05:00:00 11,5 10,2 7,8 15,7 16,0 6 3 11 6 SSE 1008,9 15 0 0,0
19.10.2017 04:00:00 11,2 9,8 7,6 15,8 16,0 4 2 10 6 E 1008,9 13 0 0,0
19.10.2017 03:00:00 12,5 10,7 7,6 15,9 16,0 6 4 15 8 ESE 1009,4 18 0 0,0
19.10.2017 02:00:00 11,5 10,1 7,2 16,0 16,0 4 2 8 4 E 1009,5 11 0 0,0
19.10.2017 01:00:00 11,7 10,3 7,6 16,0 16,0 3 2 6 3 ENE 1010,2 11 0 0,2
19.10.2017 00:00:00 11,8 10,7 7,1 16,1 16,0 3 2 6 3 NNE 1010,7 11 0 0,0
18.10.2017 23:00:00 12,1 10,7 7,4 16,2 16,0 0 0 5 3 N 1011,4 11 0 0,0
18.10.2017 22:00:00 13,6 11,6 8,9 16,2 16,0 2 1 7 4 NE 1011,1 14 0 0,0
18.10.2017 21:00:00 14,6 11,6 10,3 16,2 16,0 4 2 8 4 E 1010,8 20 0 0,0
18.10.2017 20:00:00 17,1 12,8 15,1 16,2 16,0 4 2 8 4 E 1010,8 20 0 0,0
18.10.2017 19:00:00 18,4 12,8 16,9 16,1 16,0 3 1 11 6 ESE 1010,7 20 0 0,0
18.10.2017 18:00:00 19,1 12,6 18,3 16,1 16,0 6 3 15 8 SE 1010,5 20 24 0,0
18.10.2017 17:00:00 19,4 12,4 19,4 16,0 16,0 9 5 19 11 SE 1010,9 20 0 0,0
18.10.2017 16:00:00 19,5 12,7 19,7 15,9 16,0 10 5 19 10 SE 1011,2 20 0 0,0
18.10.2017 15:00:00 19,6 12,8 21,1 15,7 16,0 5 3 16 9 SSW 1011,4 20 4 0,0
18.10.2017 14:00:00 20,2 12,7 21,6 15,6 16,0 10 6 20 11 SSW 1012,1 20 21 0,0
18.10.2017 13:00:00 18,7 12,2 21,2 15,6 16,0 11 6 21 12 SSW 1012,7 20 24 0,0
18.10.2017 12:00:00 17,7 12,6 18,4 15,6 16,0 10 6 18 10 S 1012,9 19 41 0,0
18.10.2017 11:00:00 16,2 12,2 13,3 15,6 16,0 8 4 16 9 S 1013,3 20 13 0,0
18.10.2017 10:00:00 13,4 11,3 12,1 15,6 16,0 7 4 16 8 S 1013,6 19 0 0,0
18.10.2017 09:00:00 12,3 10,7 10,6 15,7 16,0 6 4 14 8 S 1013,5 16 8 0,0
18.10.2017 08:00:00 11,7 10,4 9,9 15,7 16,0 7 4 13 7 S 1013,4 14 0 0,0
18.10.2017 07:00:00 11,5 10,2 8,4 15,9 16,0 5 3 8 4 SSE 1013,4 12 0 0,0
18.10.2017 06:00:00 11,2 10,1 7,8 16,0 16,0 5 3 7 4 SSE 1013,5 13 0 0,0
18.10.2017 05:00:00 11,4 10,3 6,8 16,0 16,0 5 3 7 4 SE 1013,6 16 0 0,0
18.10.2017 04:00:00 11,6 10,5 8,4 16,1 16,0 4 2 8 4 S 1013,9 12 0 0,0
18.10.2017 03:00:00 12,1 11,0 8,2 16,2 16,0 4 2 9 5 S 1014,0 8 0 0,0
18.10.2017 02:00:00 12,7 11,4 9,3 16,3 16,0 6 3 10 6 S 1014,1 12 0 0,0
18.10.2017 01:00:00 13,4 11,8 10,3 16,3 16,0 6 3 10 5 S 1014,1 14 0 0,2
18.10.2017 00:00:00 14,5 13,2 8,6 16,4 16,0 6 3 13 7 SSE 1014,4 13 0 0,0
17.10.2017 23:00:00 14,0 12,7 9,0 16,5 16,0 4 2 5 3 ENE 1015,0 10 0 0,0
17.10.2017 22:00:00 15,3 13,7 10,2 16,5 16,0 4 2 6 4 E 1014,9 14 0 0,0
17.10.2017 21:00:00 16,6 14,4 12,6 16,5 16,0 5 3 8 4 ENE 1015,1 19 0 0,0
17.10.2017 20:00:00 16,7 14,0 12,6 16,5 16,0 4 2 7 4 ENE 1015,5 17 0 0,0
17.10.2017 19:00:00 19,6 15,0 16,0 16,4 16,0 4 2 13 7 ENE 1015,4 20 36 0,0
17.10.2017 18:00:00 21,4 15,5 20,8 16,3 16,0 7 4 15 8 ESE 1015,5 20 58 0,0
17.10.2017 17:00:00 21,9 15,3 24,0 16,2 16,0 6 4 13 7 E 1016,0 20 60 0,0

tt = Température de l'air
td = dewpoint
tt 5cm = Température de l'air 5cm
tt -20cm = Température de l'air -20cm
tt -100cm = Température de l'air -100cm
ff = Vitesse du vent
fx = gusts
dd = Direction du vent
ppp = reduced air pressure
vv = visibility
sd = Ensoleillement
rr = Quantités de précipitations

stations d'obs. à proximité